CDT,Max TemperatureF,Mean TemperatureF,Min TemperatureF,Max Dew PointF,MeanDew PointF,Min DewpointF,Max Humidity, Mean Humidity, Min Humidity, Max Sea Level PressureIn, Mean Sea Level PressureIn, Min Sea Level PressureIn, Max VisibilityMiles, Mean VisibilityMiles, Min VisibilityMiles, Max Wind SpeedMPH, Mean Wind SpeedMPH, Max Gust SpeedMPH,PrecipitationIn, CloudCover, Events, WindDirDegrees
2013-7-1,81,68,55,57,52,49,83,61,39,30.14,30.10,30.07,10,10,9,18,9,24,0.00,0,,18
2013-7-2,82,69,56,58,54,50,78,59,40,30.14,30.09,30.04,10,9,2,35,6,44,0.12,3,Rain-Thunderstorm,346
2013-7-3,83,69,55,61,55,51,86,62,37,30.07,30.03,29.98,10,10,10,9,3,20,0.00,0,,215
2013-7-4,84,71,57,62,57,54,100,69,37,30.05,30.01,29.96,10,10,10,13,6,17,0.00,0,,174
2013-7-5,88,75,61,61,58,56,78,56,34,30.00,29.96,29.91,10,10,10,16,8,24,0.00,0,,168
2013-7-6,90,78,65,64,62,58,78,60,41,29.96,29.92,29.87,10,10,10,17,10,23,0.00,0,,177
2013-7-7,92,82,71,70,65,61,73,59,44,29.94,29.91,29.87,10,10,10,22,12,29,T,1,Rain-Thunderstorm,190
2013-7-8,90,83,75,73,68,63,79,66,52,30.00,29.96,29.92,10,10,10,16,8,20,T,3,,193
2013-7-9,94,84,74,76,72,68,87,68,49,29.98,29.91,29.86,10,10,8,17,7,23,0.04,1,Rain,213
2013-7-10,85,74,63,75,63,57,85,63,40,30.06,29.99,29.89,10,10,10,16,8,22,0.00,1,,2
2013-7-11,84,72,59,60,57,56,90,65,40,30.11,30.07,30.01,10,10,10,10,5,15,0.00,0,,103
2013-7-12,85,74,63,60,58,57,84,62,40,30.08,30.04,30.00,10,10,10,18,9,24,0.00,0,,145
2013-7-13,82,73,64,64,59,55,73,64,54,30.05,30.03,30.00,10,10,10,14,8,20,0.00,0,,141
2013-7-14,86,74,61,63,60,58,84,64,43,30.16,30.09,30.05,10,10,10,14,6,22,0.00,1,,118
2013-7-15,88,77,66,68,65,61,81,66,50,30.21,30.17,30.13,10,10,8,14,6,17,0.00,2,,110
2013-7-16,91,81,71,70,68,66,93,70,47,30.26,30.23,30.19,10,10,7,12,6,22,0.00,1,,163
2013-7-17,93,83,72,71,68,64,84,63,41,30.30,30.25,30.18,10,10,9,14,6,20,0.00,1,Thunderstorm,186
2013-7-18,94,83,71,71,67,63,93,66,38,30.19,30.08,29.96,10,10,10,17,9,24,0.00,0,,208
2013-7-19,95,85,74,71,67,64,74,57,39,29.96,29.90,29.84,10,10,10,17,10,24,0.00,1,,250
2013-7-20,89,78,66,65,61,52,87,58,29,29.95,29.91,29.87,10,10,10,14,5,17,0.00,0,,42
2013-7-21,82,75,67,70,66,63,90,79,67,29.93,29.87,29.82,10,8,0,30,5,44,1.67,4,Fog-Rain-Thunderstorm,129
2013-7-22,90,79,67,73,68,61,100,76,52,29.86,29.81,29.74,10,6,0,26,6,35,0.04,3,Fog-Thunderstorm,182
2013-7-23,76,69,61,64,61,57,93,74,54,29.98,29.90,29.78,10,10,10,24,7,32,0.00,0,,26
2013-7-24,81,69,57,60,58,55,93,68,42,30.06,30.03,29.98,10,10,10,14,5,17,0.00,1,,28
2013-7-25,83,73,63,68,63,58,87,69,51,30.08,30.04,30.01,10,10,5,17,7,22,0.09,3,Rain-Thunderstorm,190
2013-7-26,82,70,58,68,62,50,93,64,35,30.06,30.01,29.97,10,10,5,20,10,25,0.03,3,Rain,307
2013-7-27,74,64,53,52,48,44,89,64,38,30.11,30.05,30.00,10,10,10,17,6,23,0.00,2,,334
2013-7-28,77,64,50,51,47,45,86,60,33,30.06,30.04,30.02,10,10,10,13,5,18,0.00,0,,300
2013-7-29,69,61,52,63,58,49,89,74,59,30.12,30.08,30.05,10,10,6,12,6,16,0.22,6,Rain,114
2013-7-30,77,71,64,70,65,62,100,90,79,30.09,30.04,30.02,10,6,0,10,4,17,0.30,8,Fog-Rain,49
2013-7-31,82,73,64,66,64,63,93,74,54,30.13,30.09,30.03,10,7,1,10,4,14,0.00,6,,349